TimeCST,TemperatureF,Dew PointF,Humidity,Sea Level PressureIn,VisibilityMPH,Wind Direction,Wind SpeedMPH,Gust SpeedMPH,PrecipitationIn,Events,Conditions,WindDirDegrees,DateUTC
12:11 AM,6.8,1.4,79,30.05,10.0,Calm,Calm,-,N/A,,Clear,0,2013-01-05 06:11:00
12:31 AM,8.6,3.2,79,30.05,10.0,North,4.6,-,N/A,,Clear,350,2013-01-05 06:31:00
12:50 AM,10.4,6.8,85,30.05,10.0,North,4.6,-,N/A,,Clear,10,2013-01-05 06:50:00
1:11 AM,12.2,6.8,79,30.05,10.0,North,4.6,-,N/A,,Clear,360,2013-01-05 07:11:00
1:31 AM,12.2,6.8,79,30.05,10.0,North,3.5,-,N/A,,Clear,350,2013-01-05 07:31:00
1:51 AM,8.6,3.2,79,30.05,10.0,North,4.6,-,N/A,,Clear,360,2013-01-05 07:51:00
2:11 AM,10.4,5.0,79,30.05,10.0,North,4.6,-,N/A,,Clear,350,2013-01-05 08:11:00
2:31 AM,8.6,3.2,79,30.04,10.0,North,5.8,-,N/A,,Clear,360,2013-01-05 08:31:00
2:51 AM,6.8,1.4,79,30.04,10.0,North,3.5,-,N/A,,Scattered Clouds,10,2013-01-05 08:51:00
3:11 AM,6.8,1.4,79,30.04,10.0,North,3.5,-,N/A,,Overcast,10,2013-01-05 09:11:00
3:31 AM,15.8,10.4,79,30.03,10.0,North,5.8,-,N/A,,Overcast,10,2013-01-05 09:31:00
4:31 AM,17.6,12.2,79,30.01,10.0,NNE,4.6,-,N/A,,Mostly Cloudy,20,2013-01-05 10:31:00
4:51 AM,17.6,12.2,79,30.01,10.0,NNE,6.9,-,N/A,,Mostly Cloudy,20,2013-01-05 10:51:00
5:11 AM,17.6,12.2,79,30.01,10.0,NNE,3.5,-,N/A,,Overcast,20,2013-01-05 11:11:00
5:51 AM,17.6,12.2,79,29.99,10.0,NNE,4.6,-,N/A,,Mostly Cloudy,30,2013-01-05 11:51:00
6:31 AM,17.6,12.2,79,29.97,10.0,NE,4.6,-,N/A,,Scattered Clouds,40,2013-01-05 12:31:00
6:51 AM,17.6,12.2,79,29.96,10.0,NNE,4.6,-,N/A,,Mostly Cloudy,30,2013-01-05 12:51:00
7:11 AM,17.6,12.2,79,29.95,10.0,NNE,3.5,-,N/A,,Overcast,30,2013-01-05 13:11:00
7:31 AM,19.4,14.0,80,29.94,10.0,ENE,3.5,-,N/A,,Overcast,60,2013-01-05 13:31:00
7:52 AM,17.6,14.0,86,29.93,10.0,NE,4.6,-,N/A,,Mostly Cloudy,40,2013-01-05 13:52:00
8:11 AM,19.4,15.8,86,29.94,10.0,NE,4.6,-,N/A,,Overcast,40,2013-01-05 14:11:00
8:31 AM,21.2,15.8,80,29.95,10.0,Calm,Calm,-,N/A,,Overcast,0,2013-01-05 14:31:00
8:52 AM,21.2,15.8,80,29.95,10.0,Calm,Calm,-,N/A,,Scattered Clouds,0,2013-01-05 14:52:00
9:11 AM,23.0,17.6,80,29.94,10.0,ENE,3.5,-,N/A,,Clear,70,2013-01-05 15:11:00
9:31 AM,24.8,19.4,80,29.94,10.0,East,4.6,-,N/A,,Clear,80,2013-01-05 15:31:00
9:52 AM,24.8,19.4,80,29.93,10.0,ESE,3.5,-,N/A,,Scattered Clouds,120,2013-01-05 15:52:00
10:11 AM,26.6,19.4,74,29.93,10.0,ESE,4.6,-,N/A,,Mostly Cloudy,120,2013-01-05 16:11:00
10:52 AM,26.6,17.6,69,29.92,10.0,SE,4.6,-,N/A,,Scattered Clouds,130,2013-01-05 16:52:00
11:31 AM,26.6,15.8,64,29.89,10.0,SE,4.6,-,N/A,,Clear,140,2013-01-05 17:31:00
11:52 AM,28.4,17.6,64,29.89,10.0,SE,4.6,-,N/A,,Clear,130,2013-01-05 17:52:00
12:11 PM,28.4,17.6,64,29.87,10.0,East,4.6,-,N/A,,Clear,90,2013-01-05 18:11:00
12:31 PM,26.6,17.6,69,29.85,10.0,East,3.5,-,N/A,,Clear,100,2013-01-05 18:31:00
12:52 PM,28.4,17.6,64,29.84,10.0,East,5.8,-,N/A,,Clear,80,2013-01-05 18:52:00
1:11 PM,28.4,17.6,64,29.83,10.0,ESE,4.6,-,N/A,,Clear,110,2013-01-05 19:11:00
1:31 PM,28.4,17.6,64,29.82,10.0,Calm,Calm,-,N/A,,Clear,0,2013-01-05 19:31:00
1:52 PM,28.4,17.6,64,29.81,10.0,ESE,3.5,-,N/A,,Scattered Clouds,120,2013-01-05 19:52:00
2:11 PM,28.4,17.6,64,29.81,10.0,ESE,5.8,-,N/A,,Mostly Cloudy,110,2013-01-05 20:11:00
2:31 PM,26.6,19.4,74,29.81,10.0,East,5.8,-,N/A,,Overcast,100,2013-01-05 20:31:00
2:52 PM,26.6,19.4,74,29.82,10.0,ESE,4.6,-,N/A,,Overcast,110,2013-01-05 20:52:00
3:11 PM,26.6,19.4,74,29.82,10.0,ENE,3.5,-,N/A,,Overcast,70,2013-01-05 21:11:00
3:31 PM,28.4,19.4,69,29.82,10.0,NNE,8.1,-,N/A,,Overcast,30,2013-01-05 21:31:00
3:52 PM,28.4,19.4,69,29.82,10.0,NNE,5.8,-,N/A,,Overcast,20,2013-01-05 21:52:00
4:11 PM,28.4,19.4,69,29.82,10.0,NNE,3.5,-,N/A,,Overcast,20,2013-01-05 22:11:00
4:31 PM,28.4,19.4,69,29.82,10.0,NE,4.6,-,N/A,,Overcast,40,2013-01-05 22:31:00
4:52 PM,28.4,19.4,69,29.82,10.0,NNE,4.6,-,N/A,,Overcast,20,2013-01-05 22:52:00
5:11 PM,28.4,19.4,69,29.83,10.0,North,4.6,-,N/A,,Overcast,360,2013-01-05 23:11:00
5:31 PM,28.4,19.4,69,29.83,10.0,North,6.9,-,N/A,,Overcast,360,2013-01-05 23:31:00
5:52 PM,26.6,19.4,74,29.84,10.0,North,3.5,-,N/A,,Overcast,360,2013-01-05 23:52:00
6:11 PM,26.6,19.4,74,29.85,10.0,NNW,3.5,-,N/A,,Overcast,340,2013-01-06 00:11:00
6:31 PM,26.6,19.4,74,29.86,10.0,NNW,4.6,-,N/A,,Overcast,330,2013-01-06 00:31:00
6:52 PM,26.6,17.6,69,29.86,10.0,NNW,6.9,-,N/A,,Overcast,340,2013-01-06 00:52:00
7:11 PM,26.6,17.6,69,29.85,10.0,North,3.5,-,N/A,,Overcast,350,2013-01-06 01:11:00
7:52 PM,26.6,17.6,69,29.87,10.0,Calm,Calm,-,N/A,,Overcast,0,2013-01-06 01:52:00
8:11 PM,26.6,19.4,74,29.87,10.0,NNW,5.8,-,N/A,,Overcast,340,2013-01-06 02:11:00
8:31 PM,26.6,17.6,69,29.87,10.0,NNW,4.6,-,N/A,,Overcast,340,2013-01-06 02:31:00
8:52 PM,24.8,17.6,74,29.87,10.0,NNW,3.5,-,N/A,,Overcast,340,2013-01-06 02:52:00
9:11 PM,24.8,17.6,74,29.87,10.0,NNW,4.6,-,N/A,,Overcast,330,2013-01-06 03:11:00
9:31 PM,24.8,17.6,74,29.88,10.0,Calm,Calm,-,N/A,,Overcast,0,2013-01-06 03:31:00
9:51 PM,24.8,17.6,74,29.89,10.0,NW,6.9,-,N/A,,Overcast,310,2013-01-06 03:51:00
10:11 PM,23.0,17.6,80,29.89,10.0,NW,3.5,-,N/A,,Overcast,310,2013-01-06 04:11:00
10:31 PM,23.0,17.6,80,29.90,10.0,NW,4.6,-,N/A,,Overcast,310,2013-01-06 04:31:00
10:51 PM,23.0,17.6,80,29.90,10.0,NW,4.6,-,N/A,,Overcast,320,2013-01-06 04:51:00
11:12 PM,21.2,15.8,80,29.91,10.0,NNW,4.6,-,N/A,,Overcast,330,2013-01-06 05:12:00
11:31 PM,21.2,15.8,80,29.90,10.0,North,3.5,-,N/A,,Overcast,10,2013-01-06 05:31:00
11:51 PM,21.2,15.8,80,29.91,10.0,Calm,Calm,-,N/A,,Overcast,0,2013-01-06 05:51:00